Showing default

IRIDIUM 159, 43578

Orbit data source: Space-Track

IRIDIUM 159, 43578 is a payload satellite owned by Iridium (US) in LEO that was launched on Wed, 25 Jul 2018 UTC via an FALCON 9 launch vehicle from the Air Force Western Test Range (AFWTR). Payload-class satellites include a variety of spacecraft equipped with specific instruments for various scientific and technological missions. These include communications satellites like Starlink; space stations such as the ISS; scientific satellites like the Hubble; Earth observation satellites from companies like Planet Labs, Umbra, and HawkEye 360; GPS; miniature CubeSats for education and research; and military/defense satellites.

Loading next visibility...
Identifier
43578, 2018-061K
Orbit
LEO
Country
Flag of USUS
Related business
Manufacturer
NGIS SSG Gilbert
Mission
Operational Commercial Communications
Bus & Motor
ELITEBUS, Unknown motor
Mass
860 kg wet, 700 kg dry
Launch date (UTC)
2018-07-25 (7 years ago)
Launch vehicle
FALCON 9
Launch site
Air Force Western Test Range (AFWTR)
Object type
Payload
Rocket body
Debris
Shape & HBR
Trap Box + 2 Pan, 4.7 m
Radar Cross Section
14.423 m², Large (>1 m²)

Expand to show TLE details & history
Last TLE update: 16 hours ago

TLE from 16 hours ago
0 IRIDIUM 159
1 43578U 18061K   25258.73689655  .00000127  00000-0  38140-4 0  9994
2 43578  86.4044 171.4088 0002030  81.7284 278.4142 14.34218038374049
Epoch: 2025-09-15T17:41Z
TLE epoch observation values (Epoch: 2025-09-15T17:41:07.861Z)
Latitude
-0.00004°
Longitude
-88.81122°
Altitude
780.505 km
Speed
7.464 km/s
True Right ascension
11h 25m 38s
True Declination
0° 00' 00"
Sunlit
Object was in daylight at epoch
Visualization orbit readout
Latitude
Unknown
Longitude
Unknown
Altitude
Unknown
Speed
Unknown
Apparent Right ascension
Unknown
Apparent Declination
Unknown
Sunlit
N/A
Visualization observer readout
Local Sidereal Time
02:15:44
Azimuth
Unknown
Elevation
Unknown
Doppler factor
Unknown
Orbital elements
Apogee altitude
776.083 km
Perigee altitude
773.179 km
Semi-major axis
7,152.768 km
Eccentricity
0.0002
Inclination
86.4044°
RAAN
171.4088°
Arg. of periapsis
81.7284°
True anomaly
278.39119°
Mean anomaly
278.4142°
Eccentric anomaly
278.40269°
Mean motion
3.58783 °/min
Orbital period
100.34 mins
BSTAR
0.00003814
Loading maneuver chart data...
Computing Atmospheric mass density...
Loading historical data...
Loading historical data...
Loading historical data...
Loading historical data...
Loading historical data...
Loading historical data...
Loading historical data...

Documentation

Showing up to 5 results
|